[[{"header":{"parameterUnit":"m.s-1","parameterCategory":1,"la1":30.2991,"la2":30.254,"lo1":-89.0895,"lo2":-89.0444,"dy":0.0017,"dx":0.0017,"nx":28,"ny":28,"refTime":"2025-03-17T09:00:00:Z","depth":0,"parameterNumber":2,"parameterNumberName":"U-component_of_WINDS"},"data":[0,0,0,0,0,0,0,0,0,0,0,0,0,0,0,0,0,0,0,0,0,0,0,0,0,0,0,0,0,0,0,0,0,0,0,0,0,0,0,0,0,0,0,0,0,0,0,0,0,0,0,0,0,0,0,0,0,0,0.0447,0.0446,0,0.0335,0.0333,0.0332,0.0231,0.0229,0.0228,0.0227,0.0113,0.0111,0.0109,0,0,0,0,0,0,0,0,0,0,0,0,0,0.0574,0.0572,0.0447,0.0446,0.0444,0.0335,0.0333,0.0332,0.0231,0.0229,0.0228,0.0227,0.0114,0.0111,0.0109,0,0,0,0,0,0,0,0,0,0,0,0,0,0.0496,0.0572,0.0447,0.0381,0.0374,0.0335,0.0333,0.0331,0.0231,0.0229,0.0228,0.0226,0.0114,0.0112,0.0109,0.0128,0,0,0.01,0.0099,0,0,0,0,0,0,0,0,0.0501,0.0492,0.0392,0.0385,0.0377,0.0295,0.0336,0.0263,0.0232,0.0285,0.0227,0.0225,0.0175,0.0167,0.015,0.0122,0.0117,0.01,0.0098,0.0097,0.0096,0,0,0,0,0,0,0,0.0506,0.0496,0.0403,0.0391,0.0382,0.0356,0.0343,0.0322,0.0242,0.028,0.0273,0.0261,0.0171,0.0153,0.0147,0.0116,0.01,0.0097,0.0096,0.0094,0.0097,0.0099,0,0,0,0,0,0,0.0522,0.0501,0.0406,0.0399,0.0436,0.0356,0.0341,0.0323,0.0242,0.0228,0.0263,0.0257,0.0159,0.015,0.0142,0.0159,0.0097,0.0094,0.0093,0.0096,0.0098,0.01,0,0,0,0,0,0,0.0525,0.0514,0.0411,0.0448,0.0433,0.0355,0.0336,0.0322,0.0304,0.0228,0.0213,0.0259,0.0157,0.0146,0.0132,0.0153,0.0093,0.009,0.0093,0.0096,0.0099,0.0193,0,0,0,0,0,0,0.0529,0.0516,0.0523,0.0449,0.0431,0.0403,0.0337,0.0321,0.0299,0.029,0.0221,0.0208,0.0155,0.0137,0.0129,0.0148,0.0088,0.0091,0.0095,0.0098,0.0187,0.0198,0.0207,0,0,0,0,0,0.0534,0.0554,0.0523,0.0513,0.0438,0.0404,0.0394,0.0332,0.0302,0.0307,0.0258,0.021,0.0152,0.0136,0.0127,0.0146,0.009,0.0094,0.0098,0.0183,0.0196,0.0207,0,0,0,0,0,0,0.0632,0.0543,0.0508,0.0505,0.0463,0.0387,0.0392,0.0348,0.0314,0.0307,0.0232,0.0217,0.0211,0.0177,0.016,0.0159,0.0114,0.0117,0.0182,0.0194,0.0204,0.0213,0.0086,0,0,0,0,0,0.0653,0.0633,0.0556,0.0561,0.0541,0.0471,0.0454,0.041,0.0363,0.0345,0.0295,0.0252,0.0224,0.0207,0.0177,0.0181,0.0165,0.019,0.02,0.0209,0.0212,0.0211,0.0221,0.0113,0.0113,0.0113,0,0,0.0697,0.0646,0.0638,0.0579,0.0541,0.0522,0.0457,0.0439,0.0424,0.0342,0.0326,0.0288,0.0234,0.023,0.0225,0.0201,0.0238,0.0214,0.0221,0.0219,0.0216,0.0227,0.0236,0.0116,0.0115,0.0115,0,0,0.0767,0.0727,0.0725,0.0689,0.0632,0.0585,0.0585,0.0516,0.0487,0.0469,0.0407,0.0388,0.0341,0.0306,0.0282,0.0338,0.0293,0.033,0.0384,0.0384,0.0393,0.04,0.042,0.0428,0.0334,0.0334,0.0334,0,0.0829,0.0798,0.0731,0.0717,0.0693,0.0617,0.0616,0.0583,0.052,0.0506,0.0479,0.0418,0.0377,0.0363,0.0377,0.036,0.0357,0.0338,0.0397,0.0404,0.0409,0.0428,0.0436,0.0339,0.0338,0.0338,0.0337,0,0.0876,0.0856,0.0862,0.0802,0.0779,0.0772,0.0703,0.0688,0.0645,0.0601,0.0584,0.0532,0.049,0.0483,0.0442,0.0463,0.0449,0.0411,0.0364,0.0426,0.0442,0.0448,0.0346,0.0344,0.0343,0.0342,0,0,0.1006,0.0909,0.0913,0.0885,0.0816,0.0799,0.0788,0.0747,0.0735,0.0693,0.0683,0.0644,0.0608,0.0581,0.0535,0.0536,0.0584,0.0497,0.0494,0.0515,0.0604,0.0634,0.0643,0.0553,0.0554,0.0554,0.0608,0,0.1065,0.1041,0.098,0.0975,0.0955,0.0882,0.0873,0.083,0.0788,0.0765,0.0718,0.0693,0.0647,0.063,0.0627,0.0579,0.06,0.0574,0.0542,0.0542,0.0558,0.0651,0.0682,0.0736,0.0614,0.0615,0.0616,0,0.1131,0.1094,0.1087,0.102,0.1009,0.1001,0.0958,0.0937,0.0887,0.0856,0.0826,0.0775,0.0759,0.0716,0.0693,0.0677,0.066,0.0634,0.0634,0.063,0.0583,0.0649,0.0751,0.076,0.0625,0.0624,0.0624,0,0.1227,0.1175,0.1164,0.1143,0.1063,0.106,0.1027,0.0975,0.0953,0.0916,0.0901,0.0863,0.0842,0.0813,0.0753,0.0726,0.0737,0.0689,0.0711,0.0713,0.0717,0.0718,0.0819,0.0706,0.0706,0.0706,0.0706,0,0.13,0.1298,0.1206,0.12,0.1196,0.1125,0.1124,0.1084,0.1038,0.1022,0.0957,0.0943,0.0864,0.0842,0.0795,0.0783,0.0774,0.0749,0.0737,0.0755,0.0759,0.0744,0.0739,0.0708,0.0708,0.0707,0.0707,0,0.1406,0.1345,0.1328,0.1254,0.1235,0.1236,0.1173,0.1163,0.1117,0.1098,0.109,0.1018,0.0988,0.0924,0.0877,0.0846,0.0846,0.0823,0.0863,0.0855,0.0882,0.088,0.0977,0.0986,0.0868,0.0869,0.087,0,0.1457,0.1454,0.138,0.1365,0.1334,0.131,0.1288,0.1219,0.1198,0.1141,0.1139,0.1103,0.1072,0.1027,0.0971,0.0935,0.0911,0.0947,0.0905,0.0924,0.0912,0.0913,0.0912,0.0957,0.0959,0.096,0.0961,0,0.1554,0.1523,0.1494,0.1454,0.143,0.1395,0.1357,0.1348,0.1269,0.125,0.1218,0.1194,0.1145,0.1111,0.1066,0.1032,0.0984,0.0975,0.0978,0.0997,0.1021,0.1009,0.0889,0.0973,0.0972,0.0971,0.097,0.097,0.1634,0.1628,0.1575,0.1545,0.1508,0.1474,0.1462,0.1414,0.1386,0.1341,0.1302,0.1274,0.1223,0.1158,0.1127,0.1104,0.108,0.1085,0.1086,0.1089,0.1097,0.1024,0.1095,0.1095,0.1094,0.1094,0.1094,0,0.1728,0.169,0.1663,0.1611,0.1587,0.1543,0.1498,0.1481,0.1457,0.1414,0.1384,0.1347,0.1314,0.1255,0.1216,0.1209,0.1186,0.1202,0.1202,0.1195,0.112,0.1121,0.1221,0.1221,0.1221,0.1221,0.1221,0.1221,0.1774,0.1761,0.1725,0.1694,0.1655,0.1627,0.1605,0.1573,0.1538,0.1501,0.1473,0.1434,0.1384,0.1341,0.1309,0.1292,0.1281,0.1304,0.128,0.1212,0.12,0.1189,0.1189,0.1302,0.1302,0.1357,0.1357,0.1358]},{"header":{"parameterUnit":"m.s-1","parameterCategory":1,"la1":30.2991,"la2":30.254,"lo1":-89.0895,"lo2":-89.0444,"dy":0.0017,"dx":0.0017,"nx":28,"ny":28,"refTime":"2025-03-17T09:00:00:Z","depth":0,"parameterNumber":3,"parameterNumberName":"V-component_of_WINDS"},"data":[0,0,0,0,0,0,0,0,0,0,0,0,0,0,0,0,0,0,0,0,0,0,0,0,0,0,0,0,0,0,0,0,0,0,0,0,0,0,0,0,0,0,0,0,0,0,0,0,0,0,0,0,0,0,0,0,0,0,0.1379,0.1379,0,0.1393,0.1393,0.1393,0.1402,0.1403,0.1403,0.1403,0.1417,0.1417,0.1417,0,0,0,0,0,0,0,0,0,0,0,0,0,0.1359,0.1359,0.1379,0.1379,0.1379,0.1393,0.1393,0.1393,0.1402,0.1403,0.1403,0.1403,0.1417,0.1417,0.1417,0,0,0,0,0,0,0,0,0,0,0,0,0,0.137,0.136,0.1379,0.1385,0.1386,0.1393,0.1393,0.1393,0.1402,0.1403,0.1403,0.1403,0.1417,0.1417,0.1417,0.1419,0,0,0.1419,0.1419,0,0,0,0,0,0,0,0,0.1369,0.1371,0.1384,0.1385,0.1386,0.1396,0.1391,0.1402,0.1402,0.1396,0.1403,0.1403,0.141,0.1411,0.1413,0.1419,0.142,0.1419,0.1419,0.1419,0.142,0,0,0,0,0,0,0,0.1369,0.137,0.1384,0.1384,0.1385,0.1387,0.1389,0.1393,0.1402,0.1397,0.1397,0.1399,0.141,0.1413,0.1414,0.142,0.1419,0.1419,0.142,0.142,0.1428,0.1428,0,0,0,0,0,0,0.1367,0.1369,0.1384,0.1385,0.1378,0.1388,0.139,0.1393,0.1402,0.1404,0.1399,0.1399,0.1412,0.1413,0.1414,0.1416,0.1419,0.142,0.142,0.1428,0.1428,0.1428,0,0,0,0,0,0,0.1366,0.1368,0.1383,0.1377,0.1379,0.1388,0.1391,0.1393,0.1395,0.1404,0.1406,0.14,0.1412,0.1413,0.1418,0.1417,0.142,0.1421,0.1428,0.1428,0.1428,0.142,0,0,0,0,0,0,0.1366,0.1368,0.1368,0.1377,0.138,0.1386,0.1391,0.1393,0.1396,0.1397,0.1405,0.1407,0.1412,0.1417,0.1418,0.1418,0.1421,0.1428,0.1428,0.1428,0.1421,0.142,0.1419,0,0,0,0,0,0.1365,0.1365,0.1368,0.137,0.138,0.1386,0.1388,0.1394,0.1396,0.1397,0.1402,0.1406,0.1417,0.1417,0.1419,0.1418,0.1428,0.1428,0.1428,0.1421,0.142,0.1419,0,0,0,0,0,0,0.1356,0.1367,0.137,0.1373,0.1379,0.1388,0.1389,0.1393,0.1398,0.1398,0.1406,0.1408,0.1411,0.1415,0.1415,0.142,0.1423,0.1423,0.1417,0.1417,0.1416,0.1415,0.1421,0,0,0,0,0,0.1354,0.1358,0.1367,0.137,0.1372,0.138,0.1383,0.1387,0.1393,0.1396,0.1401,0.1407,0.1411,0.1414,0.1419,0.1421,0.1423,0.1422,0.1421,0.1421,0.1421,0.1423,0.1422,0.1427,0.1427,0.1427,0,0,0.1351,0.1358,0.136,0.1368,0.1373,0.1377,0.1382,0.1386,0.1389,0.1396,0.14,0.1405,0.1411,0.1415,0.1417,0.1418,0.142,0.142,0.142,0.142,0.1422,0.1422,0.1421,0.1427,0.1427,0.1427,0,0,0.1347,0.1353,0.1355,0.136,0.1367,0.1372,0.1373,0.1381,0.1385,0.1389,0.1395,0.1398,0.1406,0.1411,0.1414,0.1412,0.1416,0.1413,0.141,0.1412,0.1411,0.1411,0.141,0.141,0.1413,0.1413,0.1413,0,0.1342,0.1349,0.1356,0.1359,0.1363,0.137,0.1372,0.1377,0.1385,0.1387,0.1389,0.1399,0.1404,0.1409,0.1408,0.1411,0.1412,0.1412,0.1411,0.141,0.141,0.141,0.141,0.1413,0.1413,0.1413,0.1413,0,0.1342,0.1346,0.1347,0.1356,0.1359,0.1362,0.137,0.1373,0.1377,0.1382,0.1386,0.1393,0.1399,0.14,0.1404,0.1405,0.1406,0.1409,0.1412,0.1409,0.1409,0.1409,0.1412,0.1412,0.1413,0.1413,0,0,0.1333,0.1345,0.1345,0.1349,0.1358,0.1361,0.1365,0.1371,0.1373,0.1379,0.1382,0.1388,0.1391,0.1395,0.14,0.1401,0.14,0.1404,0.1404,0.1403,0.1401,0.1399,0.1399,0.1402,0.1402,0.1402,0.1401,0,0.133,0.1337,0.1344,0.1348,0.1352,0.1359,0.1362,0.1367,0.1372,0.1376,0.1382,0.1386,0.139,0.1392,0.1394,0.1399,0.1399,0.14,0.1405,0.1405,0.1403,0.1399,0.1396,0.1394,0.1401,0.1401,0.1401,0,0.1328,0.1334,0.1339,0.1347,0.1349,0.1352,0.1358,0.1362,0.1368,0.1372,0.1376,0.1381,0.1385,0.1388,0.1393,0.1393,0.1396,0.1399,0.1399,0.14,0.1403,0.1399,0.1394,0.1394,0.1401,0.1401,0.1401,0,0.1321,0.133,0.1334,0.1337,0.1347,0.1349,0.1353,0.136,0.1363,0.1368,0.1371,0.1377,0.138,0.1384,0.139,0.1392,0.1395,0.1399,0.1398,0.1398,0.1399,0.1398,0.1394,0.14,0.14,0.14,0.14,0,0.1318,0.132,0.1331,0.1333,0.1336,0.1344,0.1347,0.1352,0.1358,0.1361,0.1367,0.1371,0.1379,0.1383,0.1388,0.1392,0.1393,0.1396,0.1397,0.1396,0.1395,0.1397,0.1398,0.14,0.14,0.14,0.14,0,0.131,0.1317,0.1322,0.1331,0.1334,0.1336,0.1344,0.1346,0.1352,0.1356,0.1357,0.1366,0.1371,0.1378,0.1385,0.1388,0.1392,0.1394,0.1389,0.139,0.139,0.1389,0.1386,0.1386,0.1393,0.1392,0.1392,0,0.1308,0.131,0.1319,0.1322,0.1326,0.1331,0.1335,0.1342,0.1346,0.1353,0.1355,0.1361,0.1366,0.1374,0.138,0.1386,0.1388,0.1387,0.1389,0.1387,0.1388,0.1388,0.1388,0.1386,0.1386,0.1386,0.1386,0,0.1302,0.1306,0.1311,0.1317,0.1321,0.1326,0.1332,0.1334,0.1342,0.1346,0.1351,0.1355,0.1363,0.1369,0.1375,0.1379,0.1384,0.1385,0.1385,0.1383,0.1381,0.1382,0.1388,0.1385,0.1385,0.1385,0.1385,0.1385,0.1297,0.1299,0.1307,0.1312,0.1317,0.1322,0.1325,0.1331,0.1336,0.1342,0.1347,0.1352,0.1359,0.1368,0.1372,0.1376,0.1378,0.1379,0.1379,0.1379,0.1378,0.138,0.1378,0.1378,0.1378,0.1378,0.1378,0,0.1292,0.1297,0.1302,0.1309,0.1314,0.1318,0.1324,0.1327,0.1332,0.1338,0.1343,0.1349,0.1355,0.1362,0.1368,0.137,0.1372,0.1371,0.1371,0.1372,0.1376,0.1375,0.137,0.137,0.137,0.137,0.137,0.137,0.129,0.1294,0.1298,0.1305,0.131,0.1316,0.1319,0.1324,0.1328,0.1335,0.134,0.1345,0.1351,0.1358,0.1363,0.1365,0.1367,0.1365,0.1368,0.1371,0.1372,0.1373,0.1372,0.1366,0.1366,0.1364,0.1364,0.1364]}]]